QPF
0.00 0.00 0.01 0.01 0.01 0.02 0.03 0.02 0.02 0.02 0.02 0.02 0.02 0.02 0.02 0.02 0.03 0.04 0.03 0.02 0.02 0.02 0.02 0.03 0.04 0.03 0.03 0.04 0.03 0.03 0.02 0.02 0.02 0.02 0.02 0.03 0.03 0.04 0.03 0.02 0.01 0.01 0.01
0.00 0.00 0.01 0.01 0.01 0.02 0.02 0.02 0.02 0.02 0.02 0.02 0.02 0.02 0.03 0.04 0.03 0.04 0.04 0.03 0.02 0.03 0.03 0.03 0.03 0.03 0.03 0.04 0.03 0.03 0.03 0.03 0.03 0.02 0.02 0.02 0.02 0.03 0.02 0.03 0.02 0.01 0.01
0.00 0.00 0.01 0.01 0.01 0.02 0.02 0.02 0.02 0.02 0.02 0.02 0.02 0.02 0.02 0.03 0.04 0.04 0.05 0.04 0.03 0.03 0.03 0.02 0.02 0.03 0.03 0.06 0.06 0.04 0.03 0.03 0.03 0.02 0.02 0.02 0.02 0.02 0.02 0.02 0.02 0.02 0.03
0.00 0.00 0.01 0.01 0.01 0.02 0.02 0.02 0.02 0.03 0.03 0.02 0.02 0.02 0.02 0.03 0.05 0.05 0.04 0.04 0.03 0.03 0.03 0.02 0.02 0.02 0.02 0.03 0.07 0.08 0.05 0.03 0.03 0.03 0.02 0.01 0.01 0.02 0.02 0.01 0.02 0.02 0.02
0.01 0.00 0.01 0.02 0.02 0.01 0.02 0.03 0.02 0.03 0.02 0.02 0.03 0.03 0.02 0.02 0.04 0.05 0.04 0.04 0.03 0.03 0.03 0.03 0.02 0.01 0.01 0.01 0.03 0.07 0.07 0.04 0.03 0.03 0.02 0.01 0.01 0.02 0.02 0.02 0.02 0.02 0.02
0.02 0.00 0.00 0.01 0.02 0.02 0.02 0.03 0.03 0.03 0.03 0.02 0.03 0.03 0.03 0.03 0.04 0.04 0.04 0.04 0.03 0.03 0.03 0.03 0.02 0.01 0.01 0.01 0.01 0.04 0.07 0.06 0.04 0.02 0.02 0.02 0.01 0.02 0.03 0.02 0.02 0.02 0.02
0.02 0.01 0.01 0.01 0.01 0.02 0.02 0.03 0.03 0.03 0.02 0.02 0.03 0.03 0.03 0.03 0.03 0.04 0.03 0.03 0.03 0.03 0.03 0.02 0.02 0.01 0.01 0.01 0.01 0.01 0.03 0.06 0.05 0.04 0.03 0.02 0.01 0.03 0.03 0.03 0.03 0.02 0.03
0.01 0.01 0.01 0.01 0.01 0.01 0.02 0.03 0.04 0.04 0.03 0.03 0.04 0.04 0.02 0.02 0.02 0.03 0.03 0.03 0.03 0.03 0.03 0.03 0.02 0.02 0.01 0.01 0.00 0.00 0.01 0.02 0.03 0.04 0.05 0.03 0.02 0.04 0.04 0.05 0.03 0.02 0.02
0.02 0.02 0.01 0.01 0.01 0.01 0.01 0.02 0.03 0.04 0.05 0.05 0.04 0.04 0.03 0.02 0.02 0.03 0.03 0.03 0.04 0.03 0.03 0.03 0.02 0.02 0.01 0.01 0.00 0.00 0.00 0.01 0.02 0.02 0.03 0.04 0.05 0.05 0.06 0.06 0.04 0.03 0.02
0.02 0.01 0.01 0.01 0.00 0.00 0.01 0.01 0.01 0.02 0.04 0.06 0.06 0.04 0.03 0.02 0.01 0.01 0.03 0.04 0.04 0.03 0.03 0.04 0.03 0.02 0.02 0.01 0.00 0.00 0.00 0.00 0.01 0.01 0.02 0.03 0.05 0.06 0.06 0.05 0.04 0.04 0.03
0.02 0.01 0.01 0.01 0.00 0.00 0.01 0.01 0.01 0.01 0.03 0.05 0.06 0.06 0.04 0.01 0.00 0.00 0.01 0.03 0.04 0.04 0.04 0.04 0.04 0.03 0.02 0.01 0.00 0.00 0.00 0.00 0.00 0.01 0.01 0.02 0.02 0.04 0.06 0.06 0.05 0.04 0.04
0.02 0.02 0.01 0.01 0.00 0.00 0.00 0.01 0.01 0.01 0.02 0.03 0.04 0.05 0.04 0.03 0.01 0.00 0.01 0.02 0.03 0.05 0.05 0.05 0.05 0.04 0.03 0.03 0.02 0.01 0.00 0.00 0.00 0.01 0.01 0.02 0.02 0.04 0.05 0.06 0.05 0.05 0.04
0.03 0.02 0.01 0.01 0.01 0.00 0.00 0.01 0.01 0.01 0.02 0.04 0.04 0.06 0.06 0.05 0.03 0.01 0.00 0.02 0.03 0.05 0.06 0.05 0.05 0.05 0.04 0.03 0.03 0.01 0.00 0.00 0.00 0.00 0.01 0.01 0.02 0.04 0.05 0.05 0.05 0.05 0.05
0.02 0.02 0.02 0.01 0.01 0.01 0.01 0.01 0.01 0.02 0.03 0.03 0.04 0.06 0.07 0.07 0.05 0.02 0.01 0.02 0.04 0.06 0.07 0.06 0.05 0.06 0.04 0.03 0.03 0.02 0.01 0.00 0.00 0.00 0.00 0.01 0.02 0.03 0.05 0.06 0.06 0.05 0.05
0.01 0.02 0.02 0.02 0.01 0.01 0.01 0.01 0.02 0.02 0.02 0.03 0.04 0.06 0.07 0.07 0.07 0.04 0.02 0.02 0.03 0.05 0.07 0.07 0.04 0.05 0.05 0.03 0.03 0.04 0.03 0.01 0.01 0.00 0.00 0.00 0.01 0.02 0.04 0.05 0.06 0.06 0.07
0.01 0.02 0.03 0.02 0.02 0.01 0.01 0.01 0.02 0.02 0.03 0.03 0.05 0.05 0.07 0.07 0.07 0.05 0.03 0.03 0.03 0.04 0.05 0.06 0.05 0.04 0.06 0.04 0.03 0.03 0.05 0.03 0.02 0.01 0.01 0.00 0.00 0.01 0.03 0.05 0.06 0.06 0.06
0.01 0.02 0.03 0.03 0.04 0.03 0.02 0.01 0.01 0.03 0.03 0.03 0.04 0.05 0.06 0.06 0.06 0.06 0.04 0.04 0.03 0.03 0.04 0.04 0.05 0.05 0.05 0.04 0.03 0.02 0.02 0.02 0.02 0.01 0.01 0.01 0.00 0.00 0.02 0.04 0.06 0.06 0.07
0.02 0.02 0.03 0.03 0.04 0.04 0.04 0.03 0.02 0.03 0.04 0.04 0.04 0.05 0.05 0.06 0.07 0.06 0.06 0.04 0.05 0.04 0.05 0.04 0.05 0.04 0.04 0.04 0.03 0.02 0.02 0.02 0.01 0.01 0.01 0.01 0.01 0.00 0.01 0.02 0.05 0.08 0.07
0.03 0.02 0.03 0.03 0.03 0.04 0.04 0.03 0.02 0.03 0.05 0.08 0.06 0.05 0.05 0.07 0.08 0.07 0.06 0.06 0.06 0.06 0.06 0.04 0.04 0.04 0.04 0.04 0.03 0.03 0.02 0.02 0.02 0.02 0.02 0.01 0.01 0.01 0.01 0.01 0.03 0.05 0.09
0.04 0.04 0.03 0.03 0.03 0.03 0.04 0.04 0.02 0.02 0.04 0.06 0.07 0.06 0.05 0.05 0.06 0.05 0.05 0.06 0.08 0.08 0.07 0.06 0.03 0.03 0.04 0.03 0.03 0.03 0.03 0.02 0.02 0.03 0.03 0.03 0.02 0.02 0.02 0.01 0.02 0.03 0.06
0.03 0.04 0.04 0.04 0.03 0.03 0.03 0.04 0.03 0.03 0.04 0.05 0.05 0.05 0.05 0.04 0.04 0.05 0.04 0.04 0.06 0.10 0.09 0.08 0.07 0.05 0.05 0.04 0.04 0.03 0.02 0.02 0.02 0.02 0.03 0.04 0.04 0.03 0.02 0.02 0.02 0.03 0.04
0.02 0.03 0.05 0.05 0.03 0.03 0.03 0.03 0.03 0.03 0.03 0.03 0.02 0.02 0.03 0.03 0.03 0.04 0.04 0.03 0.04 0.09 0.12 0.09 0.08 0.06 0.05 0.05 0.04 0.03 0.03 0.02 0.02 0.02 0.03 0.04 0.05 0.04 0.03 0.03 0.02 0.02 0.03
0.02 0.03 0.05 0.05 0.05 0.04 0.03 0.03 0.03 0.03 0.03 0.03 0.02 0.02 0.02 0.02 0.03 0.04 0.04 0.03 0.03 0.05 0.09 0.11 0.09 0.07 0.05 0.05 0.04 0.03 0.02 0.02 0.02 0.02 0.02 0.03 0.04 0.05 0.05 0.04 0.04 0.03 0.03
0.02 0.04 0.07 0.07 0.07 0.05 0.03 0.03 0.03 0.03 0.03 0.03 0.03 0.02 0.02 0.02 0.02 0.04 0.04 0.04 0.04 0.04 0.05 0.08 0.09 0.08 0.07 0.06 0.05 0.03 0.02 0.02 0.02 0.02 0.02 0.03 0.03 0.04 0.05 0.05 0.05 0.05 0.04
0.03 0.05 0.06 0.07 0.07 0.04 0.03 0.04 0.04 0.04 0.04 0.04 0.04 0.03 0.02 0.01 0.02 0.03 0.04 0.05 0.05 0.05 0.05 0.06 0.07 0.07 0.07 0.07 0.06 0.04 0.02 0.01 0.02 0.02 0.02 0.02 0.03 0.04 0.04 0.04 0.05 0.05 0.04
0.04 0.05 0.06 0.06 0.05 0.04 0.04 0.05 0.04 0.03 0.04 0.04 0.04 0.03 0.02 0.01 0.01 0.02 0.03 0.04 0.03 0.03 0.03 0.04 0.04 0.05 0.06 0.06 0.05 0.03 0.03 0.02 0.02 0.02 0.02 0.02 0.03 0.04 0.05 0.04 0.04 0.04 0.04
MSLP
1015.14 1014.54 1013.67 1012.63 1011.51 1010.42 1009.44 1008.62 1007.98 1007.51 1007.20 1007.02 1006.96 1007.02 1007.20 1007.49 1007.87 1008.33 1008.83 1009.33 1009.80 1010.24 1010.63 1011.00 1011.37 1011.76 1012.17 1012.62 1013.08 1013.52 1013.93 1014.30 1014.62 1014.91 1015.17 1015.44 1015.71 1016.00 1016.29 1016.55 1016.79 1016.98 1017.13
1015.99 1015.31 1014.38 1013.30 1012.16 1011.06 1010.08 1009.24 1008.56 1008.04 1007.64 1007.37 1007.21 1007.17 1007.26 1007.48 1007.81 1008.24 1008.73 1009.25 1009.75 1010.21 1010.64 1011.04 1011.44 1011.85 1012.28 1012.73 1013.19 1013.65 1014.07 1014.46 1014.80 1015.11 1015.41 1015.71 1016.02 1016.33 1016.64 1016.92 1017.17 1017.37 1017.54
1016.62 1015.87 1014.92 1013.84 1012.74 1011.70 1010.78 1009.98 1009.32 1008.77 1008.31 1007.93 1007.65 1007.48 1007.43 1007.53 1007.76 1008.12 1008.56 1009.06 1009.57 1010.06 1010.53 1010.98 1011.42 1011.87 1012.34 1012.83 1013.32 1013.80 1014.25 1014.66 1015.03 1015.37 1015.70 1016.02 1016.35 1016.68 1017.00 1017.30 1017.56 1017.78 1017.96
1017.01 1016.22 1015.28 1014.27 1013.27 1012.34 1011.52 1010.81 1010.19 1009.63 1009.12 1008.64 1008.22 1007.89 1007.68 1007.62 1007.71 1007.97 1008.34 1008.81 1009.31 1009.83 1010.35 1010.85 1011.36 1011.88 1012.40 1012.94 1013.47 1013.99 1014.47 1014.92 1015.31 1015.68 1016.02 1016.35 1016.69 1017.02 1017.35 1017.65 1017.93 1018.17 1018.37
1017.19 1016.41 1015.52 1014.61 1013.75 1012.97 1012.29 1011.68 1011.12 1010.56 1009.99 1009.41 1008.85 1008.35 1007.97 1007.74 1007.70 1007.83 1008.13 1008.54 1009.04 1009.59 1010.15 1010.72 1011.30 1011.89 1012.49 1013.08 1013.67 1014.23 1014.75 1015.22 1015.64 1016.01 1016.36 1016.69 1017.01 1017.34 1017.66 1017.97 1018.26 1018.52 1018.74
1017.25 1016.51 1015.71 1014.93 1014.21 1013.59 1013.04 1012.53 1012.02 1011.47 1010.85 1010.17 1009.48 1008.84 1008.30 1007.92 1007.73 1007.75 1007.97 1008.34 1008.83 1009.39 1010.00 1010.64 1011.29 1011.95 1012.62 1013.27 1013.91 1014.50 1015.05 1015.54 1015.97 1016.34 1016.68 1017.00 1017.31 1017.62 1017.93 1018.24 1018.53 1018.81 1019.06
1017.29 1016.61 1015.91 1015.27 1014.70 1014.21 1013.77 1013.34 1012.86 1012.30 1011.63 1010.88 1010.09 1009.33 1008.66 1008.16 1007.86 1007.79 1007.93 1008.25 1008.72 1009.29 1009.94 1010.63 1011.34 1012.06 1012.79 1013.49 1014.16 1014.78 1015.35 1015.84 1016.27 1016.64 1016.97 1017.27 1017.56 1017.85 1018.15 1018.45 1018.76 1019.05 1019.33
1017.38 1016.77 1016.19 1015.66 1015.21 1014.82 1014.46 1014.07 1013.61 1013.02 1012.32 1011.51 1010.65 1009.82 1009.07 1008.49 1008.11 1007.95 1008.02 1008.30 1008.73 1009.30 1009.96 1010.68 1011.44 1012.21 1012.97 1013.71 1014.41 1015.05 1015.61 1016.10 1016.52 1016.88 1017.20 1017.49 1017.77 1018.05 1018.35 1018.65 1018.96 1019.27 1019.57
1017.56 1017.04 1016.55 1016.12 1015.75 1015.42 1015.10 1014.72 1014.24 1013.64 1012.91 1012.07 1011.19 1010.32 1009.54 1008.90 1008.46 1008.24 1008.25 1008.46 1008.85 1009.38 1010.03 1010.76 1011.54 1012.34 1013.14 1013.91 1014.62 1015.26 1015.83 1016.31 1016.72 1017.07 1017.38 1017.67 1017.95 1018.24 1018.54 1018.85 1019.17 1019.49 1019.80
1017.84 1017.39 1016.98 1016.62 1016.30 1015.99 1015.67 1015.27 1014.78 1014.16 1013.41 1012.58 1011.70 1010.84 1010.05 1009.40 1008.92 1008.64 1008.57 1008.70 1009.01 1009.49 1010.10 1010.82 1011.61 1012.44 1013.27 1014.06 1014.79 1015.44 1016.00 1016.47 1016.87 1017.21 1017.53 1017.83 1018.13 1018.44 1018.76 1019.09 1019.41 1019.74 1020.06
1018.17 1017.79 1017.43 1017.11 1016.81 1016.50 1016.16 1015.74 1015.22 1014.59 1013.85 1013.04 1012.20 1011.37 1010.61 1009.95 1009.43 1009.08 1008.92 1008.96 1009.18 1009.58 1010.14 1010.84 1011.63 1012.48 1013.33 1014.16 1014.91 1015.57 1016.13 1016.61 1017.00 1017.34 1017.67 1017.98 1018.31 1018.65 1019.00 1019.35 1019.70 1020.03 1020.34
1018.50 1018.17 1017.85 1017.55 1017.25 1016.92 1016.55 1016.10 1015.56 1014.93 1014.23 1013.46 1012.68 1011.90 1011.17 1010.51 1009.96 1009.54 1009.29 1009.21 1009.32 1009.62 1010.12 1010.78 1011.57 1012.45 1013.35 1014.21 1015.00 1015.69 1016.27 1016.74 1017.13 1017.48 1017.81 1018.14 1018.50 1018.87 1019.26 1019.64 1020.00 1020.34 1020.63
1018.78 1018.47 1018.18 1017.88 1017.57 1017.23 1016.83 1016.36 1015.82 1015.20 1014.53 1013.83 1013.11 1012.40 1011.71 1011.06 1010.48 1009.99 1009.62 1009.42 1009.41 1009.62 1010.04 1010.67 1011.47 1012.37 1013.32 1014.25 1015.09 1015.81 1016.41 1016.89 1017.28 1017.62 1017.95 1018.29 1018.67 1019.08 1019.49 1019.91 1020.29 1020.63 1020.91
1018.96 1018.67 1018.37 1018.08 1017.77 1017.41 1016.99 1016.51 1015.97 1015.38 1014.76 1014.12 1013.48 1012.83 1012.19 1011.55 1010.94 1010.39 1009.93 1009.61 1009.49 1009.59 1009.94 1010.54 1011.34 1012.28 1013.28 1014.27 1015.17 1015.95 1016.57 1017.06 1017.44 1017.77 1018.09 1018.43 1018.81 1019.23 1019.68 1020.11 1020.51 1020.86 1021.13
1019.02 1018.72 1018.43 1018.13 1017.81 1017.44 1017.02 1016.53 1016.01 1015.45 1014.89 1014.32 1013.74 1013.17 1012.57 1011.96 1011.34 1010.73 1010.20 1009.78 1009.55 1009.57 1009.85 1010.41 1011.21 1012.18 1013.24 1014.29 1015.26 1016.08 1016.73 1017.23 1017.61 1017.92 1018.21 1018.53 1018.90 1019.32 1019.77 1020.22 1020.64 1020.99 1021.26
1018.95 1018.63 1018.34 1018.04 1017.71 1017.34 1016.92 1016.45 1015.94 1015.42 1014.89 1014.38 1013.88 1013.37 1012.83 1012.25 1011.64 1011.02 1010.43 1009.95 1009.64 1009.57 1009.80 1010.31 1011.10 1012.09 1013.19 1014.29 1015.32 1016.19 1016.89 1017.40 1017.77 1018.06 1018.32 1018.61 1018.95 1019.35 1019.79 1020.24 1020.66 1021.03 1021.30
1018.76 1018.42 1018.11 1017.81 1017.49 1017.13 1016.72 1016.26 1015.77 1015.27 1014.78 1014.32 1013.87 1013.42 1012.94 1012.42 1011.84 1011.22 1010.62 1010.10 1009.74 1009.61 1009.77 1010.24 1011.00 1011.98 1013.11 1014.25 1015.33 1016.26 1017.00 1017.54 1017.92 1018.20 1018.43 1018.68 1018.98 1019.35 1019.77 1020.20 1020.63 1020.99 1021.28
1018.45 1018.09 1017.78 1017.48 1017.17 1016.83 1016.43 1015.98 1015.51 1015.03 1014.57 1014.13 1013.73 1013.33 1012.91 1012.44 1011.91 1011.34 1010.75 1010.23 1009.83 1009.66 1009.76 1010.18 1010.89 1011.85 1012.98 1014.15 1015.28 1016.26 1017.05 1017.65 1018.06 1018.34 1018.56 1018.78 1019.05 1019.37 1019.76 1020.17 1020.59 1020.95 1021.25
1018.06 1017.68 1017.35 1017.06 1016.77 1016.45 1016.07 1015.65 1015.19 1014.72 1014.27 1013.85 1013.46 1013.10 1012.72 1012.32 1011.85 1011.34 1010.80 1010.29 1009.89 1009.69 1009.74 1010.10 1010.75 1011.68 1012.79 1013.98 1015.14 1016.18 1017.05 1017.71 1018.18 1018.50 1018.74 1018.95 1019.20 1019.49 1019.84 1020.22 1020.61 1020.97 1021.27
1017.57 1017.17 1016.84 1016.57 1016.30 1016.01 1015.67 1015.28 1014.84 1014.37 1013.92 1013.49 1013.11 1012.76 1012.42 1012.06 1011.66 1011.21 1010.73 1010.26 1009.88 1009.66 1009.68 1009.98 1010.58 1011.45 1012.53 1013.73 1014.92 1016.03 1016.98 1017.74 1018.30 1018.69 1018.98 1019.21 1019.45 1019.73 1020.05 1020.40 1020.77 1021.11 1021.40
1017.00 1016.58 1016.26 1016.00 1015.77 1015.53 1015.24 1014.88 1014.47 1014.01 1013.55 1013.11 1012.71 1012.36 1012.03 1011.71 1011.36 1010.97 1010.55 1010.13 1009.78 1009.56 1009.56 1009.81 1010.36 1011.18 1012.23 1013.42 1014.65 1015.83 1016.87 1017.73 1018.40 1018.89 1019.26 1019.55 1019.81 1020.09 1020.40 1020.73 1021.06 1021.38 1021.65
1016.35 1015.93 1015.60 1015.37 1015.18 1015.00 1014.77 1014.47 1014.09 1013.66 1013.20 1012.74 1012.32 1011.94 1011.60 1011.29 1010.97 1010.62 1010.26 1009.90 1009.59 1009.39 1009.38 1009.61 1010.11 1010.89 1011.91 1013.09 1014.34 1015.57 1016.70 1017.67 1018.46 1019.06 1019.53 1019.90 1020.22 1020.53 1020.84 1021.16 1021.48 1021.78 1022.02
1015.62 1015.19 1014.88 1014.67 1014.53 1014.41 1014.26 1014.03 1013.72 1013.32 1012.87 1012.41 1011.96 1011.54 1011.18 1010.85 1010.53 1010.22 1009.91 1009.60 1009.34 1009.17 1009.17 1009.39 1009.87 1010.61 1011.59 1012.75 1014.01 1015.27 1016.46 1017.53 1018.42 1019.14 1019.72 1020.19 1020.59 1020.95 1021.30 1021.64 1021.96 1022.25 1022.48
1014.82 1014.39 1014.08 1013.89 1013.80 1013.75 1013.68 1013.55 1013.32 1012.99 1012.58 1012.12 1011.65 1011.20 1010.80 1010.44 1010.11 1009.81 1009.53 1009.26 1009.05 1008.93 1008.97 1009.19 1009.66 1010.37 1011.31 1012.44 1013.67 1014.94 1016.16 1017.27 1018.25 1019.06 1019.74 1020.32 1020.81 1021.26 1021.68 1022.07 1022.43 1022.72 1022.95
1013.98 1013.53 1013.22 1013.04 1012.99 1013.00 1013.02 1012.99 1012.86 1012.62 1012.28 1011.85 1011.39 1010.92 1010.48 1010.09 1009.74 1009.43 1009.16 1008.93 1008.77 1008.70 1008.77 1009.02 1009.48 1010.17 1011.07 1012.15 1013.33 1014.56 1015.76 1016.89 1017.90 1018.79 1019.56 1020.23 1020.84 1021.40 1021.91 1022.39 1022.81 1023.14 1023.39
1013.10 1012.63 1012.30 1012.12 1012.08 1012.15 1012.25 1012.32 1012.31 1012.19 1011.93 1011.58 1011.15 1010.69 1010.23 1009.80 1009.42 1009.09 1008.82 1008.62 1008.49 1008.47 1008.59 1008.87 1009.34 1010.01 1010.87 1011.88 1012.99 1014.14 1015.29 1016.38 1017.39 1018.31 1019.15 1019.92 1020.63 1021.31 1021.96 1022.54 1023.06 1023.47 1023.77
Thickness
5702 5705 5706 5707 5708 5708 5709 5710 5710 5711 5712 5712 5713 5714 5715 5716 5717 5718 5719 5719 5720 5721 5722 5722 5723 5723 5723 5723 5723 5723 5723 5723 5723 5723 5723 5723 5723 5723 5722 5722 5722 5721 5721
5700 5701 5703 5704 5704 5704 5705 5705 5705 5706 5707 5707 5708 5710 5711 5711 5712 5713 5714 5715 5715 5716 5717 5718 5718 5719 5719 5719 5719 5719 5719 5719 5719 5719 5719 5719 5719 5719 5718 5718 5718 5717 5717
5696 5697 5698 5699 5699 5699 5700 5700 5700 5701 5701 5702 5703 5704 5705 5706 5707 5708 5709 5709 5710 5711 5712 5713 5713 5713 5714 5714 5714 5714 5714 5714 5714 5714 5714 5714 5714 5715 5715 5714 5714 5714 5713
5691 5692 5692 5693 5694 5694 5694 5694 5694 5695 5695 5696 5697 5698 5699 5700 5701 5702 5703 5704 5705 5706 5706 5707 5707 5708 5708 5709 5709 5709 5709 5709 5709 5709 5710 5710 5710 5710 5711 5710 5710 5710 5709
5686 5686 5687 5687 5688 5688 5688 5688 5688 5689 5689 5690 5691 5692 5693 5694 5695 5696 5697 5698 5699 5700 5701 5702 5702 5703 5703 5703 5704 5704 5704 5704 5704 5704 5705 5705 5706 5706 5706 5706 5706 5705 5705
5679 5679 5680 5681 5681 5682 5682 5682 5682 5682 5683 5683 5684 5685 5686 5687 5689 5690 5691 5692 5693 5694 5695 5696 5697 5697 5698 5698 5699 5699 5699 5699 5699 5700 5700 5701 5701 5702 5702 5701 5701 5700 5700
5672 5672 5673 5674 5674 5674 5675 5675 5675 5675 5676 5677 5677 5678 5679 5680 5682 5683 5684 5685 5686 5688 5689 5690 5691 5692 5692 5693 5693 5694 5694 5693 5694 5695 5695 5696 5696 5697 5697 5697 5696 5696 5695
5665 5665 5665 5666 5666 5666 5667 5667 5667 5668 5669 5669 5670 5670 5672 5673 5674 5676 5677 5678 5680 5682 5683 5684 5685 5686 5686 5687 5687 5688 5688 5688 5688 5689 5690 5691 5692 5692 5692 5692 5692 5691 5691
5657 5657 5657 5658 5658 5658 5658 5659 5659 5660 5661 5661 5662 5663 5663 5665 5666 5668 5670 5671 5673 5675 5676 5678 5679 5680 5681 5681 5681 5682 5682 5682 5683 5683 5684 5685 5686 5687 5687 5687 5686 5686 5685
5648 5648 5648 5649 5649 5649 5649 5650 5651 5652 5652 5653 5654 5655 5655 5656 5658 5660 5662 5664 5666 5668 5669 5671 5672 5673 5674 5674 5675 5675 5676 5676 5677 5678 5678 5679 5681 5681 5682 5681 5681 5680 5680
5639 5639 5639 5640 5640 5641 5641 5641 5642 5643 5643 5644 5645 5647 5647 5648 5650 5652 5654 5656 5658 5660 5662 5664 5665 5666 5667 5667 5668 5668 5669 5669 5670 5671 5672 5673 5674 5675 5675 5675 5675 5675 5674
5629 5630 5630 5630 5631 5632 5632 5632 5633 5634 5634 5635 5637 5638 5639 5640 5642 5645 5647 5648 5651 5653 5654 5656 5657 5658 5659 5659 5660 5660 5661 5662 5663 5664 5665 5666 5667 5668 5669 5669 5669 5668 5668
5621 5621 5621 5622 5622 5623 5623 5623 5623 5624 5626 5627 5628 5629 5631 5632 5634 5637 5639 5640 5642 5644 5646 5647 5648 5649 5651 5652 5652 5652 5653 5654 5655 5656 5657 5658 5660 5661 5661 5662 5662 5661 5661
5612 5612 5612 5613 5613 5613 5614 5614 5615 5616 5617 5618 5620 5621 5622 5624 5626 5628 5630 5632 5634 5636 5637 5639 5640 5641 5643 5644 5644 5644 5645 5646 5647 5648 5649 5650 5651 5652 5653 5654 5654 5654 5653
5603 5603 5604 5604 5604 5605 5605 5605 5606 5607 5608 5609 5611 5612 5614 5615 5617 5621 5623 5625 5626 5628 5630 5631 5632 5633 5634 5636 5636 5636 5636 5637 5638 5639 5640 5641 5642 5643 5644 5645 5645 5645 5645
5594 5595 5595 5596 5596 5596 5596 5597 5597 5598 5599 5601 5602 5603 5605 5607 5610 5613 5614 5616 5618 5620 5622 5622 5623 5625 5625 5627 5628 5628 5628 5628 5628 5629 5630 5631 5632 5633 5634 5635 5636 5636 5636
5586 5587 5587 5588 5587 5587 5587 5588 5588 5589 5590 5592 5593 5595 5597 5599 5602 5604 5606 5608 5610 5612 5613 5614 5614 5615 5617 5617 5618 5619 5619 5619 5619 5619 5620 5620 5621 5622 5623 5624 5625 5626 5626
5578 5578 5578 5579 5578 5578 5578 5579 5579 5580 5581 5583 5584 5586 5589 5591 5594 5595 5597 5599 5601 5603 5604 5605 5605 5606 5606 5606 5607 5609 5609 5609 5610 5610 5610 5610 5610 5611 5612 5613 5615 5616 5617
5570 5570 5569 5570 5570 5569 5569 5570 5570 5571 5573 5574 5576 5578 5580 5583 5585 5587 5588 5590 5592 5593 5594 5595 5595 5595 5595 5596 5596 5598 5599 5600 5600 5601 5601 5600 5601 5601 5602 5603 5604 5605 5606
5563 5562 5561 5561 5561 5560 5559 5559 5561 5563 5564 5566 5568 5569 5571 5574 5576 5579 5579 5580 5582 5583 5584 5585 5585 5585 5584 5585 5586 5588 5589 5590 5591 5591 5591 5591 5592 5592 5592 5592 5593 5594 5596
5555 5554 5553 5553 5552 5550 5549 5549 5550 5552 5555 5557 5560 5561 5562 5564 5567 5569 5569 5570 5571 5573 5574 5575 5574 5574 5573 5573 5574 5576 5579 5581 5582 5582 5582 5582 5582 5582 5583 5583 5583 5584 5585
5548 5547 5545 5544 5544 5542 5540 5539 5540 5544 5546 5549 5550 5551 5553 5555 5557 5558 5559 5560 5562 5563 5564 5564 5564 5564 5562 5562 5562 5564 5566 5571 5572 5574 5573 5572 5572 5572 5573 5573 5573 5574 5575
5539 5538 5539 5537 5536 5534 5533 5532 5533 5535 5537 5539 5540 5542 5544 5545 5547 5548 5549 5550 5552 5553 5554 5554 5555 5554 5552 5550 5550 5552 5554 5557 5558 5562 5562 5562 5562 5562 5563 5563 5564 5565 5565
5532 5531 5530 5529 5527 5526 5525 5525 5525 5526 5527 5530 5531 5533 5534 5535 5536 5538 5539 5541 5542 5543 5544 5544 5545 5544 5543 5542 5541 5541 5542 5544 5545 5549 5552 5552 5553 5553 5554 5555 5555 5555 5556
5525 5523 5522 5521 5519 5518 5517 5517 5517 5518 5519 5520 5522 5524 5525 5525 5527 5528 5529 5531 5533 5534 5534 5535 5535 5535 5535 5534 5533 5532 5532 5532 5534 5535 5541 5543 5543 5544 5545 5546 5546 5546 5546
5517 5516 5515 5513 5511 5510 5509 5509 5509 5510 5511 5512 5514 5515 5515 5516 5517 5519 5520 5521 5523 5524 5525 5526 5526 5526 5526 5526 5525 5525 5525 5525 5526 5527 5530 5533 5533 5535 5536 5537 5537 5537 5536